Temp
13 13 13 13 13 14 14 15 15 15 16 17 17 17 18 18 19 19 20 21 21 22 23 24 25 25 23 25 27 34 35 36 34 34 34 34 33 32 31 32 30 29 30 31 32 31 31
13 13 13 13 13 14 14 14 15 15 16 16 17 17 17 18 18 19 21 21 22 23 23 24 24 24 22 28 34 34 34 35 34 34 33 34 34 33 31 31 30 29 30 30 30 30 30
13 13 13 13 13 13 14 15 15 15 16 16 17 17 18 18 19 20 21 22 23 24 24 24 24 21 22 27 33 33 33 34 34 34 32 35 35 33 32 30 30 29 29 29 28 29 30
13 13 13 13 13 13 13 14 15 15 16 16 16 17 18 18 20 21 21 23 24 25 24 24 23 20 23 33 33 34 33 34 34 34 35 36 34 30 31 30 29 29 26 26 29 29 29
13 12 13 13 13 13 13 14 14 15 15 16 16 17 18 18 20 21 23 24 25 24 24 23 21 21 26 33 33 36 35 34 35 35 35 35 32 30 30 28 27 26 26 27 27 29 29
13 12 13 12 13 13 13 14 14 15 15 16 16 17 17 19 20 21 24 24 23 22 21 20 21 23 28 33 34 35 35 35 35 34 33 32 27 27 26 26 28 28 28 28 27 29 29
12 12 12 12 12 13 13 13 14 15 15 16 16 17 18 20 21 23 25 22 21 22 22 26 26 26 28 32 34 35 35 34 34 32 32 31 29 29 29 28 30 28 29 31 30 30 29
12 12 12 12 12 12 12 13 14 14 15 15 16 17 18 20 21 23 23 21 23 24 21 24 25 25 28 31 31 33 35 34 33 32 32 30 30 30 30 30 30 28 28 28 30 31 29
11 12 12 11 12 12 12 12 13 14 15 15 16 16 17 20 21 22 20 24 23 22 23 26 26 27 30 29 30 31 33 32 32 32 32 30 31 31 30 30 30 28 28 28 30 30 28
10 10 11 11 11 11 12 12 12 13 14 15 15 16 16 19 21 19 21 24 25 23 22 28 29 30 31 31 33 33 33 33 32 31 30 31 32 33 31 31 31 30 29 30 30 28 27
9 10 10 10 10 11 11 11 12 12 13 15 15 16 15 16 16 16 24 25 26 25 26 30 30 33 30 32 33 34 34 33 32 32 30 31 34 33 32 31 31 31 31 31 30 28 28
9 9 9 9 10 10 10 11 11 12 12 14 15 16 15 16 15 23 23 25 26 24 26 31 31 31 31 32 33 32 33 33 32 33 32 31 32 33 32 33 33 32 30 26 25 25 26
8 8 9 9 9 10 10 11 11 12 12 13 15 17 16 15 18 23 23 21 22 23 29 32 31 30 30 30 32 33 32 31 30 29 31 30 32 33 33 31 31 30 27 26 28 25 27
8 8 9 9 10 10 11 11 11 12 12 13 15 18 20 20 22 22 22 22 24 27 27 29 30 28 29 29 31 31 29 29 30 29 26 29 31 33 33 32 30 28 27 26 30 27 27
7 8 8 9 10 10 11 11 11 12 12 13 17 18 18 22 23 20 19 20 22 24 28 29 30 30 30 30 31 31 29 29 29 28 30 28 30 33 34 33 33 31 31 28 24 23 25
7 7 8 9 10 10 11 11 11 12 13 15 15 14 16 21 22 21 19 19 22 25 27 27 30 30 28 29 31 29 28 30 31 29 30 31 31 32 34 34 33 33 30 30 24 27 28
7 7 8 9 10 11 11 11 11 11 13 15 15 14 21 21 22 17 18 18 22 25 27 27 28 29 29 30 28 28 29 31 31 30 30 28 30 31 33 33 32 32 30 25 24 23 25
7 7 7 8 9 10 11 11 11 11 13 15 11 17 20 20 18 14 17 19 23 25 26 27 27 26 32 28 29 29 30 31 31 29 30 29 26 29 31 32 31 32 31 26 26 28 22
7 7 7 8 9 9 10 11 10 10 11 11 9 11 21 22 19 18 19 23 25 25 26 28 28 29 30 32 32 30 30 32 31 31 30 29 27 28 30 29 31 35 31 26 23 22 23
7 7 7 8 8 9 10 10 10 10 11 11 10 16 16 16 16 21 21 22 24 25 25 27 27 28 30 30 30 32 31 34 31 31 27 27 24 28 28 30 30 32 32 28 27 25 25
7 7 7 7 8 9 9 9 10 10 12 12 10 14 15 16 18 18 20 22 23 24 25 26 28 28 30 31 30 31 32 33 32 27 29 29 30 30 29 31 31 33 33 32 31 28 31
7 7 7 7 8 9 9 9 9 10 12 12 11 12 12 14 15 19 19 21 22 23 24 25 26 29 29 30 31 31 32 31 32 33 31 26 28 31 31 31 32 33 30 30 30 30 32
7 7 7 7 7 7 8 9 9 10 11 10 11 12 11 14 16 19 19 20 21 22 22 26 27 26 25 27 28 28 29 29 32 31 27 27 25 26 29 30 31 30 30 28 28 27 28
7 7 7 7 7 7 7 8 8 8 8 9 10 10 11 14 16 18 19 21 22 21 20 23 24 25 27 30 31 30 28 27 28 29 25 25 23 23 26 28 30 29 29 29 28 28 27
8 7 7 7 7 7 7 7 8 8 8 8 9 9 10 13 14 17 19 20 19 19 20 22 26 27 26 30 27 27 26 30 31 26 29 24 22 23 26 25 29 30 29 31 29 28 28
7 7 7 7 8 7 7 7 7 7 7 8 9 9 9 12 13 17 17 18 17 17 17 20 22 22 25 23 26 27 28 28 30 30 24 23 22 25 22 28 27 27 30 29 28 26 29
7 7 7 7 7 7 7 7 7 7 7 7 9 10 10 12 12 16 16 16 18 17 16 17 19 20 24 22 24 25 27 27 28 28 28 25 23 25 23 26 26 27 29 28 30 27 28
7 7 7 7 7 7 7 8 7 7 7 7 10 10 10 11 10 15 18 17 16 16 16 17 19 20 21 24 24 23 25 26 27 26 26 27 25 24 22 24 29 28 30 31 25 25 27
7 7 7 7 7 7 7 7 7 7 7 7 8 10 10 8 10 15 16 17 17 18 16 15 18 17 19 20 21 21 25 23 23 27 26 28 25 25 25 24 24 26 28 25 25 25 27
Height
830 827 824 822 819 815 812 807 804 800 796 792 788 784 781 777 773 769 765 761 757 752 748 746 744 742 742 742 731 717 717 720 727 730 728 727 732 740 755 753 753 765 760 753 747 745 749
830 827 824 822 818 815 811 807 803 799 795 791 787 781 778 774 770 766 762 758 753 749 746 745 743 742 743 748 719 718 719 721 725 729 728 728 731 730 747 753 760 757 756 755 753 752 753
829 827 824 821 818 815 810 806 801 798 794 790 785 780 776 771 767 762 758 753 749 745 743 743 742 743 743 731 719 719 721 722 725 727 729 726 727 733 740 757 752 759 770 765 763 757 759
828 826 823 820 817 814 809 805 801 797 793 788 784 779 773 768 763 759 753 748 744 741 741 741 742 744 742 719 718 717 719 721 723 727 728 727 728 736 744 748 758 771 780 800 772 766 762
827 825 822 819 816 812 808 804 800 796 791 786 781 776 770 765 760 754 747 743 740 740 740 740 743 744 740 718 716 715 717 719 721 726 728 728 731 745 749 769 784 788 810 798 788 765 764
825 823 820 817 815 811 808 803 799 794 789 784 779 773 767 761 755 748 743 739 739 740 741 743 744 749 725 721 715 715 716 719 721 723 732 735 749 765 773 781 807 802 800 792 793 767 767
823 821 819 816 813 811 807 802 798 793 788 782 777 772 765 759 752 745 742 742 745 747 743 736 735 734 724 718 714 714 716 720 722 731 753 749 768 782 772 769 766 782 785 779 774 761 770
821 819 817 815 812 809 805 801 796 791 786 780 775 770 763 756 750 744 744 745 750 754 754 727 727 727 722 721 727 716 716 728 734 754 747 765 779 761 755 761 766 781 791 792 775 761 770
820 818 815 813 810 806 803 799 794 789 784 778 773 768 762 753 747 746 745 745 745 744 752 732 722 721 718 719 725 722 715 726 739 752 754 773 759 754 761 769 773 781 790 789 780 768 770
818 816 813 811 807 804 800 797 792 786 781 776 772 767 762 753 751 747 743 742 739 737 771 743 728 715 714 714 725 710 712 722 738 756 759 762 746 751 763 770 765 784 766 766 772 787 808
818 815 812 808 805 801 797 793 788 784 778 773 769 766 762 760 757 751 744 739 735 736 796 727 724 703 707 722 718 718 710 721 746 751 757 765 751 756 764 761 755 769 756 767 769 790 795
817 814 810 807 803 798 794 789 785 780 775 770 766 763 759 758 755 746 743 738 736 775 788 730 716 722 726 722 720 717 719 716 727 745 748 754 735 743 745 740 743 750 770 786 792 806 823
816 812 809 805 800 796 791 786 782 777 772 767 761 758 756 754 749 745 743 740 779 791 731 733 730 723 730 737 731 725 736 746 761 781 777 762 749 733 731 756 752 763 789 825 820 833 826
814 811 807 803 798 793 788 784 779 774 769 763 756 752 747 744 743 744 745 760 783 754 747 721 724 732 742 736 735 738 747 760 746 757 786 789 786 744 731 744 761 771 785 821 823 838 822
813 809 805 801 797 792 786 783 778 772 766 759 751 746 742 737 738 743 753 785 775 757 736 735 727 740 743 735 737 738 749 752 747 749 775 788 777 731 726 730 736 769 783 777 818 826 828
812 808 804 800 796 791 786 782 778 771 764 756 750 746 740 736 738 742 764 778 763 743 733 733 741 735 755 747 742 748 755 735 740 735 731 752 777 744 729 722 731 741 751 789 810 830 832
810 807 803 799 795 791 787 783 777 771 763 755 752 751 737 737 741 752 776 777 755 737 731 741 740 739 740 741 743 750 749 728 721 732 732 749 762 757 735 744 752 754 766 786 798 813 832
810 806 802 798 795 791 787 783 779 772 764 757 757 757 741 741 758 771 773 762 744 740 733 734 734 739 727 735 739 746 742 727 706 722 745 740 768 778 761 731 730 737 751 769 801 802 818
809 806 802 799 795 791 788 784 780 775 770 767 769 763 744 744 768 770 758 750 743 743 739 733 734 725 719 723 734 731 729 702 706 717 731 736 769 790 774 757 737 738 744 763 780 795 813
809 806 803 799 795 792 788 785 781 777 773 770 770 765 752 748 754 755 757 754 751 736 737 730 728 723 725 727 721 724 721 700 700 705 711 720 766 770 792 771 755 755 745 755 765 797 798
808 806 802 800 797 793 789 786 781 777 772 770 772 770 766 767 761 759 757 753 751 749 733 729 726 728 726 732 729 727 715 708 701 707 713 723 754 750 752 745 746 743 743 745 754 761 769
807 805 802 799 797 794 791 787 783 778 772 771 774 776 771 767 761 755 756 754 754 749 744 739 737 723 725 732 723 726 716 716 717 704 712 725 757 744 753 744 739 743 746 746 748 751 745
805 804 801 799 796 794 791 788 785 781 776 775 775 775 776 767 761 756 759 755 751 748 734 725 724 731 734 723 707 704 702 704 701 713 726 733 754 768 773 751 749 771 753 754 754 753 754
803 802 800 798 796 793 791 789 787 784 782 782 780 779 779 773 764 759 755 751 748 747 750 726 725 730 707 692 690 694 697 704 705 709 718 740 755 770 780 765 787 761 739 742 753 755 753
801 800 799 797 795 793 791 789 787 786 784 782 781 780 780 776 768 759 754 750 746 741 739 729 709 702 695 695 722 732 733 717 712 720 717 726 751 777 782 792 772 758 748 744 752 762 749
799 798 797 795 794 793 791 789 788 786 784 782 778 778 779 777 768 759 759 754 756 753 745 725 705 697 696 712 725 743 751 737 735 727 726 732 738 756 785 778 793 761 735 728 737 783 745
796 795 794 794 793 791 790 788 787 786 784 782 779 778 779 775 765 760 763 761 753 754 756 742 730 713 697 723 740 744 741 724 743 743 741 752 758 766 780 778 770 742 731 731 768 779 744
793 792 792 791 790 789 788 787 785 784 783 782 778 778 779 775 766 758 755 756 755 756 758 745 737 725 720 723 730 736 737 728 730 730 735 742 759 768 776 781 772 726 727 744 748 743 741
791 789 788 788 788 787 786 785 784 783 782 781 778 776 777 776 762 752 749 747 748 748 752 749 746 744 731 733 726 729 728 731 737 744 722 738 735 747 754 759 734 725 726 727 731 737 738
Wind_Speed
13 14 16 17 18 20 21 21 22 23 24 24 25 26 26 26 27 27 27 24 28 26 19 15 9 6 2 2 8 6 2 13 15 8 4 1 3 3 4 4 5 3 4 3 8 13 11
12 14 16 17 19 20 21 22 22 24 25 25 26 28 29 29 30 29 27 28 26 21 16 10 5 1 1 2 4 4 9 15 13 10 4 2 2 3 6 4 1 3 7 5 5 7 6
12 14 16 17 18 20 22 23 23 24 26 27 28 29 31 32 32 31 28 29 23 17 10 5 2 3 0 10 3 6 5 5 9 11 3 4 2 4 3 5 4 2 5 6 6 3 4
12 14 16 16 17 20 22 24 25 25 26 28 29 30 32 33 33 31 35 26 18 8 2 1 5 2 7 4 9 12 7 4 7 9 4 6 3 6 4 3 3 5 5 5 5 7 4
13 14 15 15 18 20 22 24 25 26 27 28 31 32 33 35 37 34 33 22 7 3 2 5 4 2 8 8 5 6 9 3 7 6 6 2 3 4 4 3 4 8 2 3 7 1 4
12 14 15 16 19 20 22 23 26 26 28 29 31 33 35 36 35 40 25 8 5 5 5 3 0 2 6 2 3 3 9 9 2 3 5 5 6 4 4 4 1 4 3 2 4 3 4
11 13 15 16 18 20 23 24 26 27 28 29 31 33 36 35 37 29 18 2 4 3 3 6 4 3 4 12 3 4 5 6 3 7 2 2 4 4 8 6 2 8 4 4 4 4 2
10 12 15 17 19 21 24 26 27 28 29 30 31 33 36 34 36 9 17 4 6 4 7 8 5 6 9 5 3 4 10 5 3 4 3 5 5 5 3 2 3 9 3 3 5 4 2
7 13 16 19 20 21 24 26 28 29 30 30 31 32 35 36 17 8 12 3 21 10 3 7 5 5 5 9 6 6 7 4 4 3 2 5 6 9 6 3 3 4 6 5 5 3 3
13 14 16 18 21 22 24 26 28 30 30 30 30 30 33 38 4 23 10 20 27 2 4 6 4 7 5 6 3 5 8 6 2 9 6 4 5 5 6 5 6 1 7 6 6 3 3
15 15 16 18 19 21 24 27 28 29 29 29 29 29 31 28 15 9 11 26 19 4 2 4 4 4 3 8 3 5 5 6 8 5 6 7 2 2 4 7 8 8 0 1 2 5 3
15 16 18 20 22 24 26 26 27 27 27 28 28 28 32 13 18 11 20 23 4 5 5 3 6 7 6 1 2 3 5 6 4 4 3 7 5 7 8 3 10 6 6 9 6 4 3
16 16 18 20 23 24 24 24 24 25 26 28 29 28 30 21 5 14 19 4 4 4 4 3 5 6 5 4 2 3 5 6 5 5 4 7 9 5 4 7 5 6 6 3 3 4 4
15 15 18 20 21 24 25 23 22 24 27 30 31 29 22 21 18 13 7 5 2 3 5 5 3 4 7 6 4 4 6 5 2 5 3 5 7 6 4 7 9 7 8 5 4 3 4
16 17 17 19 21 24 21 20 22 25 29 33 30 16 16 9 6 9 5 3 6 4 5 7 4 5 2 3 5 3 8 11 9 9 7 5 5 4 5 6 10 4 3 5 7 4 2
18 16 17 17 19 22 19 21 24 28 30 28 16 10 8 3 14 7 4 4 4 4 6 5 2 3 8 6 5 6 8 6 6 10 6 4 1 4 4 5 3 11 9 2 3 3 4
19 18 18 17 19 18 19 21 25 30 31 17 6 4 7 10 10 5 3 6 5 5 7 6 3 2 5 6 7 6 11 5 11 7 5 5 4 6 3 1 8 2 0 7 6 4 6
17 18 19 17 18 18 18 20 24 29 31 14 5 3 5 17 4 1 2 6 4 3 4 5 2 6 1 6 6 4 10 11 11 11 10 6 5 4 10 2 4 5 3 6 5 4 0
16 17 18 18 16 19 18 19 22 25 27 10 3 3 1 5 3 2 4 3 3 3 4 3 4 3 3 3 3 6 7 5 7 9 10 8 0 2 10 7 6 1 3 5 6 4 6
15 16 17 17 17 20 17 19 21 24 23 9 2 3 4 4 1 3 2 3 3 4 6 6 5 2 2 2 3 2 4 2 8 10 10 9 4 7 7 6 3 5 3 4 5 4 4
15 15 15 15 15 15 17 19 22 24 22 3 2 2 1 2 2 1 3 2 3 3 3 3 3 5 3 1 4 1 1 3 5 10 6 6 6 3 5 3 4 4 3 5 6 5 5
14 14 14 15 13 13 15 18 22 24 17 4 2 3 4 3 3 2 2 3 2 4 4 6 5 3 1 5 5 3 3 0 5 2 4 2 2 3 3 4 1 3 5 7 4 2 3
13 13 14 14 14 13 14 15 19 22 14 6 5 3 2 4 5 2 2 3 4 7 8 14 9 5 7 13 8 8 6 5 1 5 4 4 6 4 5 3 5 4 3 6 4 5 3
11 12 12 13 14 13 13 14 15 18 17 7 3 2 2 4 2 2 4 5 7 7 6 11 8 6 9 3 1 2 4 6 4 3 2 6 5 3 3 3 3 5 4 6 12 4 6
11 11 11 12 11 12 12 12 12 14 14 13 5 1 1 3 3 7 7 4 8 7 4 6 11 6 4 4 4 4 5 5 3 6 2 4 6 3 5 4 2 3 5 3 5 3 5
11 10 11 10 12 11 11 11 11 11 14 13 10 6 1 1 4 4 5 5 3 4 7 6 7 9 2 4 3 4 5 5 3 3 6 6 6 5 3 5 7 8 3 4 4 2 3
12 10 10 10 11 11 10 10 10 11 12 13 7 4 2 2 5 2 2 3 4 2 3 5 9 9 3 3 3 3 4 5 5 9 6 3 4 6 3 3 5 5 3 3 3 7 3
11 11 10 10 10 11 8 10 12 11 11 13 10 6 3 2 6 5 6 6 5 1 2 5 8 4 5 3 4 4 3 5 3 6 7 6 6 3 3 4 2 5 2 4 6 3 6
12 11 11 10 10 10 9 10 10 10 10 10 5 2 8 4 6 21 26 28 20 17 1 3 4 5 2 3 1 3 2 1 3 3 2 2 6 6 5 5 4 2 4 5 5 7 4
Wind_Direction
10 11 11 6 4 2 1 358 358 357 357 355 353 350 347 345 344 341 338 337 336 327 322 321 322 309 339 280 253 325 147 175 170 155 212 110 83 105 120 102 97 28 44 37 61 70 72
1 1 0 359 359 357 356 355 353 353 351 351 348 348 346 344 342 340 336 334 329 321 317 315 305 272 358 268 307 340 137 153 156 140 234 160 189 172 125 99 128 200 104 111 44 75 59
347 350 351 353 352 353 354 351 351 349 348 347 345 345 343 342 341 338 334 329 324 315 308 312 220 120 93 237 73 84 174 191 171 158 165 252 202 103 110 107 178 77 54 12 7 317 135
335 339 345 348 349 349 351 349 348 345 346 343 342 342 341 340 339 336 330 325 318 304 288 11 153 118 245 261 288 278 205 229 187 186 216 249 111 106 64 68 43 82 55 27 310 325 349
328 330 338 344 345 345 345 347 344 343 343 342 340 340 339 339 338 334 328 326 317 137 117 120 105 104 269 294 262 232 211 181 169 168 206 140 66 84 70 85 41 18 88 22 316 313 268
319 326 330 337 338 340 341 343 341 340 340 341 339 339 337 338 339 333 333 336 128 114 107 107 336 350 276 233 274 185 190 190 109 88 97 50 51 63 34 57 212 136 138 148 222 291 329
313 324 328 332 336 337 339 338 338 338 336 339 338 337 336 336 338 333 355 102 21 9 191 212 185 259 277 335 286 197 159 118 106 58 113 58 77 193 221 215 129 113 142 189 243 242 356
317 323 328 330 331 333 334 335 335 335 333 335 337 336 335 335 337 340 360 77 88 320 302 232 227 268 270 246 315 279 163 124 114 189 120 39 241 216 239 207 130 117 124 272 291 260 166
334 322 325 325 326 329 329 329 331 332 331 330 334 336 336 335 339 355 341 117 335 350 204 292 198 204 206 144 210 252 126 134 140 129 153 158 217 139 125 235 207 180 161 197 223 80 31
334 330 320 317 324 327 325 327 328 329 327 326 330 334 337 337 347 334 309 336 338 135 57 270 224 265 151 176 246 213 176 138 69 189 137 236 278 194 170 189 221 310 204 188 169 94 228
350 347 341 336 332 330 327 326 326 327 325 324 327 331 332 339 310 313 317 334 342 97 90 206 200 162 137 144 161 231 185 57 173 158 115 237 197 128 192 215 183 232 28 198 199 152 56
347 344 340 337 332 329 326 327 327 327 325 323 324 325 327 328 307 293 330 332 4 46 251 181 150 167 122 127 151 141 123 73 131 136 12 229 253 176 215 171 185 111 63 26 36 61 311
344 339 335 331 328 329 329 330 328 328 327 326 322 317 315 300 257 311 329 7 55 150 326 195 177 158 141 156 217 89 142 146 150 111 270 327 276 249 126 71 50 87 70 316 4 12 237
335 333 328 329 339 336 335 334 333 333 332 329 319 315 309 279 276 281 335 52 182 251 251 306 101 94 162 162 207 150 125 174 276 97 122 189 328 159 204 164 176 179 143 171 172 198 271
349 345 343 347 349 341 346 346 343 339 334 330 320 317 298 291 239 178 79 99 214 221 303 333 36 99 219 226 150 136 176 197 195 166 170 149 273 284 176 164 135 224 178 211 100 12 47
350 345 348 354 354 357 354 351 348 342 338 331 323 321 284 252 152 127 80 226 252 248 322 6 122 136 178 197 150 148 167 200 220 185 164 196 283 220 268 70 101 163 156 101 10 134 266
351 349 349 354 1 353 352 350 345 345 346 341 341 358 327 159 143 51 169 225 277 272 20 5 330 300 205 175 182 187 195 265 201 162 127 134 115 274 6 181 178 112 113 58 116 123 166
349 350 348 353 359 358 351 352 350 352 355 358 353 18 80 149 66 47 163 197 275 302 2 280 214 224 228 179 157 201 211 215 174 150 161 201 145 221 233 258 238 142 145 138 123 222 151
346 349 348 350 358 357 356 350 352 356 358 345 358 274 170 191 129 271 276 268 251 310 283 295 289 233 5 277 163 179 221 245 147 152 167 180 194 17 337 354 359 43 157 111 105 90 190
342 345 348 349 357 2 356 353 349 350 349 350 26 5 324 42 90 124 23 279 287 298 258 225 255 219 315 287 311 184 255 263 172 183 107 104 121 156 190 205 188 309 245 141 112 116 172
338 340 343 348 357 356 7 352 353 350 348 7 51 289 184 304 318 344 206 298 297 325 270 312 296 225 220 287 328 261 246 315 35 162 88 126 147 148 186 180 210 234 320 158 189 184 150
327 337 338 342 350 344 347 352 351 354 356 40 66 25 345 287 293 305 103 68 328 357 273 275 227 265 231 244 201 242 25 135 207 193 113 20 145 145 183 207 107 16 11 69 43 120 282
320 328 335 336 341 346 347 350 353 356 11 34 356 360 100 290 323 100 120 14 312 331 262 236 241 341 295 237 208 217 200 220 191 185 125 108 131 101 234 303 69 31 323 96 90 50 71
310 319 330 331 334 340 349 353 356 359 10 2 3 354 50 282 308 1 334 325 302 293 251 280 287 178 243 190 91 5 38 25 169 141 126 114 95 93 168 47 194 252 93 122 106 84 92
306 310 316 329 331 333 340 348 348 351 351 346 309 272 143 271 303 306 342 305 307 297 265 243 267 215 289 109 68 22 349 11 39 48 56 84 124 87 130 123 58 320 244 222 133 14 350
298 298 308 318 329 324 332 338 342 344 344 343 318 225 194 319 245 4 341 321 313 324 323 273 304 313 275 102 102 148 190 213 203 74 62 70 74 107 118 145 183 217 256 167 127 13 336
286 293 294 305 317 319 317 323 332 336 340 337 290 221 292 255 273 12 251 294 322 353 271 300 345 322 21 107 113 149 232 188 163 149 161 61 35 138 138 125 287 235 192 130 116 221 148
286 287 286 297 304 322 320 313 316 324 333 339 296 237 249 281 280 252 266 275 319 265 260 307 335 331 338 73 130 196 159 221 108 164 173 151 134 167 97 94 194 200 61 169 184 152 149
287 288 280 280 294 301 316 324 325 324 329 333 288 237 299 219 252 286 271 261 240 237 197 295 234 305 301 344 356 126 152 98 141 176 17 116 172 159 160 201 263 331 147 114 123 136 112